M I D A S
Marine Information and Data Acquisition System
Tripno 1653 of the Zeeleeuw from 2009-03-04 08:25:30 to 2009-03-04 17:20:54
Back to CruiseResearch ActivitiesStationsMapUnderway DataData graphs

EquipmentUnitsComments
TimeDGPSUTC
LatitudeDGPSDM.mWGS84
LongitudeDGPSDM.mWGS84
SpeedMeteo Stationm/sRelative wind speed
DirectionMeteo StationdegRelative wind direction
TemperatureMeteo Stationdeg CelciusAir temperature
PressureMeteo StationPaAtmospheric pressure
HumidityMeteo Station%Relative humidity
Missing or incorrect values are displayed as -999
Metereological data collected by the RV Zeeleeuw from 2009-03-04 08:07:23 to 2009-03-04 17:24:59
Time Latitude Longitude Speed Direction Temperature Pressure Humidity
2009-03-04 08:08 51°13.663 2°55.959 7.3 279 4.9 98350 81
2009-03-04 08:09 51°13.664 2°55.959 8.6 347 4.8 98350 82
2009-03-04 08:10 51°13.664 2°55.959 9.2 283 4.8 98350 82
2009-03-04 08:11 51°13.664 2°55.959 4.9 353 4.8 98350 82
2009-03-04 08:12 51°13.663 2°55.959 5.9 286 4.8 98350 82
2009-03-04 08:13 51°13.661 2°55.959 5.2 351 4.8 98360 82
2009-03-04 08:14 51°13.664 2°55.959 11 352 4.8 98350 83
2009-03-04 08:15 51°13.665 2°55.96 7.4 350 4.8 98350 83
2009-03-04 08:16 51°13.664 2°55.959 4.5 284 4.8 98360 82
2009-03-04 08:17 51°13.664 2°55.959 9.2 359 4.8 98350 82
2009-03-04 08:18 51°13.664 2°55.959 9 284 4.8 98350 83
2009-03-04 08:19 51°13.664 2°55.96 4.9 280 4.8 98350 82
2009-03-04 08:20 51°13.664 2°55.959 8.9 351 4.8 98350 83
2009-03-04 08:21 51°13.663 2°55.959 6.8 281 4.8 98360 82
2009-03-04 08:22 51°13.663 2°55.96 8.9 284 4.8 98350 83
2009-03-04 08:23 51°13.663 2°55.96 8 350 4.8 98350 83
2009-03-04 08:24 51°13.662 2°55.959 13.1 280 4.7 98360 83
2009-03-04 08:25 51°13.662 2°55.96 8.6 359 4.7 98370 83
2009-03-04 08:26 51°13.661 2°55.96 7.9 357 4.7 98360 83
2009-03-04 08:27 51°13.666 2°55.942 8.1 6 4.7 98360 83
2009-03-04 08:28 51°13.679 2°55.886 7.6 13 4.7 98370 82
2009-03-04 08:29 51°13.685 2°55.825 4.5 35 4.7 98350 83
2009-03-04 08:30 51°13.684 2°55.777 5.3 78 4.7 98360 82
2009-03-04 08:31 51°13.7 2°55.78 2.9 76 4.7 98360 84
2009-03-04 08:32 51°13.734 2°55.742 10.5 83 4.7 98390 83
2009-03-04 08:33 51°13.839 2°55.632 2.7 81 4.7 98360 83
2009-03-04 08:34 51°13.968 2°55.534 3 81 4.7 98360 83
2009-03-04 08:35 51°14.109 2°55.429 3.9 285 4.7 98370 84
2009-03-04 08:36 51°14.246 2°55.287 6.4 285 4.7 98360 83
2009-03-04 08:37 51°14.353 2°55.099 9.6 282 4.7 98370 83
2009-03-04 08:38 51°14.462 2°54.875 8.1 280 4.6 98360 83
2009-03-04 08:39 51°14.571 2°54.609 13.5 278 4.6 98370 83
2009-03-04 08:40 51°14.676 2°54.322 12.3 284 4.6 98380 84
2009-03-04 08:41 51°14.772 2°54.037 14.9 282 4.7 98360 83
2009-03-04 08:42 51°14.87 2°53.763 14.7 283 4.7 98370 85
2009-03-04 08:43 51°14.951 2°53.465 17.1 284 4.6 98370 84
2009-03-04 08:44 51°15.029 2°53.166 13.5 283 4.6 98380 84
2009-03-04 08:45 51°15.108 2°52.867 14.9 282 4.6 98370 84
2009-03-04 08:46 51°15.18 2°52.569 13.2 286 4.6 98390 84
2009-03-04 08:47 51°15.245 2°52.254 13.5 285 4.6 98360 85
2009-03-04 08:48 51°15.309 2°51.944 15.3 281 4.6 98340 84
2009-03-04 08:49 51°15.35 2°51.636 13.6 284 4.6 98330 85
2009-03-04 08:50 51°15.344 2°51.308 14.4 283 4.6 98310 85
2009-03-04 08:51 51°15.353 2°50.982 15.5 281 4.6 98310 86
2009-03-04 08:52 51°15.371 2°50.656 14 279 4.6 98310 86
2009-03-04 08:53 51°15.393 2°50.337 15.4 284 4.6 98310 85
2009-03-04 08:54 51°15.414 2°50.007 11.3 280 4.6 98310 85
2009-03-04 08:55 51°15.439 2°49.686 13 286 4.6 98310 86
2009-03-04 08:56 51°15.46 2°49.365 13.9 284 4.6 98310 86
2009-03-04 08:57 51°15.48 2°49.049 12.4 281 4.6 98320 85
2009-03-04 08:58 51°15.503 2°48.73 12.9 284 4.6 98300 86
2009-03-04 08:59 51°15.531 2°48.405 17.8 283 4.6 98300 85
2009-03-04 09:00 51°15.561 2°48.085 12.3 284 4.6 98310 86
2009-03-04 09:01 51°15.59 2°47.763 16.1 285 4.6 98290 86
2009-03-04 09:02 51°15.619 2°47.444 12.1 280 4.6 98300 85
2009-03-04 09:03 51°15.646 2°47.129 16.7 284 4.6 98290 86
2009-03-04 09:04 51°15.672 2°46.8 12.2 284 4.6 98290 86
2009-03-04 09:05 51°15.701 2°46.477 16 282 4.6 98300 85
2009-03-04 09:06 51°15.749 2°46.166 15.2 280 4.5 98300 85
2009-03-04 09:07 51°15.856 2°45.884 6.9 285 4.6 98330 86
2009-03-04 09:08 51°15.991 2°45.636 8.1 287 4.6 98330 85
2009-03-04 09:09 51°16.131 2°45.392 7.1 283 4.5 98320 85
2009-03-04 09:10 51°16.265 2°45.153 12.6 279 4.5 98330 85
2009-03-04 09:11 51°16.402 2°44.903 6.3 284 4.5 98320 84
2009-03-04 09:12 51°16.534 2°44.659 8.6 282 4.5 98320 86
2009-03-04 09:13 51°16.669 2°44.408 9 282 4.5 98310 85
2009-03-04 09:14 51°16.803 2°44.149 8.7 282 4.5 98310 85
2009-03-04 09:15 51°16.933 2°43.897 7.9 281 4.5 98310 85
2009-03-04 09:16 51°17.06 2°43.646 10.7 286 4.5 98310 86
2009-03-04 09:17 51°17.192 2°43.39 9.1 282 4.5 98310 86
2009-03-04 09:18 51°17.319 2°43.139 11.1 280 4.5 98330 86
2009-03-04 09:19 51°17.453 2°42.882 10.6 285 4.5 98310 86
2009-03-04 09:20 51°17.583 2°42.632 10.4 285 4.6 98300 85
2009-03-04 09:21 51°17.713 2°42.371 7.6 283 4.6 98300 85
2009-03-04 09:22 51°17.845 2°42.117 9.9 284 4.6 98300 86
2009-03-04 09:23 51°17.978 2°41.864 6.2 285 4.6 98310 84
2009-03-04 09:24 51°18.108 2°41.612 8 281 4.6 98310 85
2009-03-04 09:25 51°18.238 2°41.361 10.6 285 4.6 98300 85
2009-03-04 09:26 51°18.368 2°41.107 9.6 280 4.6 98300 85
2009-03-04 09:27 51°18.498 2°40.851 8.2 284 4.6 98300 86
2009-03-04 09:28 51°18.637 2°40.606 11.8 285 4.6 98290 85
2009-03-04 09:29 51°18.783 2°40.374 7.2 280 4.6 98300 86
2009-03-04 09:30 51°18.924 2°40.134 10.4 281 4.6 98280 84
2009-03-04 09:31 51°19.06 2°39.891 11.8 282 4.6 98280 84
2009-03-04 09:32 51°19.192 2°39.643 8.8 286 4.6 98280 84
2009-03-04 09:33 51°19.322 2°39.393 9.1 280 4.6 98280 85
2009-03-04 09:34 51°19.452 2°39.144 12 283 4.6 98280 86
2009-03-04 09:35 51°19.583 2°38.894 9.3 283 4.6 98270 85
2009-03-04 09:36 51°19.715 2°38.646 6.8 280 4.6 98270 85
2009-03-04 09:37 51°19.842 2°38.393 10.1 279 4.6 98290 84
2009-03-04 09:38 51°19.97 2°38.136 6.3 282 4.5 98270 86
2009-03-04 09:39 51°20.098 2°37.883 11.1 281 4.6 98280 86
2009-03-04 09:40 51°20.227 2°37.629 8.6 285 4.5 98280 85
2009-03-04 09:41 51°20.36 2°37.378 10.1 282 4.5 98270 86
2009-03-04 09:42 51°20.484 2°37.128 10 284 4.5 98270 86
2009-03-04 09:43 51°20.614 2°36.874 10.7 282 4.6 98270 86
2009-03-04 09:44 51°20.74 2°36.618 10.2 280 4.5 98280 86
2009-03-04 09:45 51°20.873 2°36.363 5.3 279 4.5 98270 86
2009-03-04 09:46 51°21.003 2°36.11 7.8 283 4.5 98270 86
2009-03-04 09:47 51°21.131 2°35.856 10.8 278 4.5 98260 86
2009-03-04 09:48 51°21.285 2°35.646 7.5 279 4.5 98280 85
2009-03-04 09:49 51°21.471 2°35.503 5 84 4.5 98280 86
2009-03-04 09:50 51°21.66 2°35.371 9.3 73 4.5 98280 86
2009-03-04 09:51 51°21.852 2°35.245 7.2 80 4.5 98280 86
2009-03-04 09:52 51°22.045 2°35.116 6.2 308 4.5 98270 85
2009-03-04 09:53 51°22.233 2°34.984 7.1 80 4.5 98280 85
2009-03-04 09:54 51°22.423 2°34.858 7.1 53 4.5 98270 85
2009-03-04 09:55 51°22.615 2°34.727 6.9 52 4.5 98260 86
2009-03-04 09:56 51°22.809 2°34.603 7.8 304 4.4 98280 86
2009-03-04 09:57 51°22.999 2°34.473 5.6 58 4.5 98270 85
2009-03-04 09:58 51°23.189 2°34.345 6.6 51 4.5 98270 86
2009-03-04 09:59 51°23.376 2°34.209 5.4 54 4.4 98280 86
2009-03-04 10:00 51°23.524 2°33.997 10.7 305 4.5 98260 87
2009-03-04 10:01 51°23.585 2°33.699 12.4 310 4.5 98240 87
2009-03-04 10:02 51°23.58 2°33.385 15.2 303 4.5 98220 87
2009-03-04 10:03 51°23.592 2°33.06 13.5 307 4.5 98230 87
2009-03-04 10:04 51°23.619 2°32.743 13.8 303 4.5 98240 87
2009-03-04 10:05 51°23.626 2°32.424 17.1 305 4.5 98250 86
2009-03-04 10:06 51°23.597 2°32.106 15.3 305 4.5 98250 86
2009-03-04 10:07 51°23.579 2°31.784 14.2 306 4.5 98220 87
2009-03-04 10:08 51°23.578 2°31.458 13.3 310 4.5 98270 86
2009-03-04 10:09 51°23.59 2°31.134 16.1 308 4.5 98280 87
2009-03-04 10:10 51°23.603 2°30.808 15.6 307 4.5 98280 86
2009-03-04 10:11 51°23.617 2°30.486 13.2 304 4.5 98280 87
2009-03-04 10:12 51°23.63 2°30.218 10.1 305 4.6 98290 86
2009-03-04 10:13 51°23.645 2°30.05 12.4 310 4.6 98300 87
2009-03-04 10:14 51°23.682 2°29.952 9.2 80 4.6 98310 86
2009-03-04 10:15 51°23.745 2°29.943 10.4 38 4.6 98290 86
2009-03-04 10:16 51°23.782 2°30.038 10.3 19 4.5 98260 86
2009-03-04 10:17 51°23.799 2°30.135 12.4 19 4.6 98270 87
2009-03-04 10:18 51°23.809 2°30.202 11.5 19 4.5 98260 86
2009-03-04 10:19 51°23.818 2°30.256 10.9 13 4.5 98260 86
2009-03-04 10:20 51°23.823 2°30.306 11.6 10 4.5 98270 87
2009-03-04 10:21 51°23.822 2°30.378 9.5 7 4.5 98250 86
2009-03-04 10:22 51°23.82 2°30.466 12.5 14 4.5 98260 87
2009-03-04 10:23 51°23.834 2°30.561 11.3 25 4.5 98260 87
2009-03-04 10:24 51°23.86 2°30.657 10.3 21 4.4 98270 87
2009-03-04 10:25 51°23.876 2°30.754 9.4 18 4.5 98270 87
2009-03-04 10:26 51°23.898 2°30.849 10.6 28 4.5 98270 86
2009-03-04 10:27 51°23.937 2°30.933 8.7 33 4.4 98270 87
2009-03-04 10:28 51°23.987 2°31.002 8.3 37 4.5 98270 86
2009-03-04 10:29 51°24.029 2°31.067 11.6 31 4.5 98270 87
2009-03-04 10:30 51°24.065 2°31.132 11.6 35 4.5 98270 87
2009-03-04 10:31 51°24.099 2°31.197 9.6 27 4.5 98270 86
2009-03-04 10:32 51°24.135 2°31.259 8.6 36 4.5 98270 86
2009-03-04 10:33 51°24.178 2°31.313 8.8 38 4.5 98280 87
2009-03-04 10:34 51°24.225 2°31.355 8.2 39 4.6 98280 86
2009-03-04 10:35 51°24.276 2°31.391 9.7 51 4.6 98280 86
2009-03-04 10:36 51°24.329 2°31.428 9.1 40 4.5 98280 87
2009-03-04 10:37 51°24.375 2°31.476 9.4 40 4.5 98290 86
2009-03-04 10:38 51°24.425 2°31.52 9.5 43 4.5 98270 86
2009-03-04 10:39 51°24.477 2°31.559 10.1 57 4.5 98290 86
2009-03-04 10:40 51°24.522 2°31.611 10.2 29 4.5 98280 86
2009-03-04 10:41 51°24.558 2°31.672 11.7 29 4.5 98270 87
2009-03-04 10:42 51°24.587 2°31.738 10.5 27 4.5 98280 86
2009-03-04 10:43 51°24.607 2°31.806 11.7 24 4.5 98270 87
2009-03-04 10:44 51°24.62 2°31.872 10.5 20 4.5 98280 86
2009-03-04 10:45 51°24.628 2°31.942 10.7 21 4.5 98280 87
2009-03-04 10:46 51°24.633 2°32.009 10.2 16 4.5 98270 86
2009-03-04 10:47 51°24.632 2°32.071 12.6 10 4.6 98270 87
2009-03-04 10:48 51°24.632 2°32.113 12.9 7 4.5 98260 86
2009-03-04 10:49 51°24.636 2°32.13 10.5 7 4.5 98270 86
2009-03-04 10:50 51°24.643 2°32.135 10.4 9 4.5 98280 87
2009-03-04 10:51 51°24.654 2°32.134 10.6 13 4.6 98270 86
2009-03-04 10:52 51°24.649 2°32.155 10.5 349 4.6 98270 88
2009-03-04 10:53 51°24.606 2°32.152 15 306 4.6 98290 87
2009-03-04 10:54 51°24.519 2°31.976 14.4 308 4.6 98270 87
2009-03-04 10:55 51°24.409 2°31.739 14.5 284 4.7 98250 88
2009-03-04 10:56 51°24.3 2°31.466 14.8 305 4.7 98250 87
2009-03-04 10:57 51°24.2 2°31.177 17 282 4.6 98230 87
2009-03-04 10:58 51°24.102 2°30.891 14.9 307 4.7 98240 87
2009-03-04 10:59 51°23.995 2°30.608 14.4 304 4.7 98230 86
2009-03-04 11:00 51°23.871 2°30.362 18 281 4.7 98230 87
2009-03-04 11:01 51°23.741 2°30.119 18.8 305 4.7 98230 87
2009-03-04 11:02 51°23.638 2°29.839 16 309 4.7 98210 87
2009-03-04 11:03 51°23.575 2°29.57 13.5 308 4.7 98250 87
2009-03-04 11:04 51°23.574 2°29.446 14 279 4.8 98310 87
2009-03-04 11:05 51°23.584 2°29.414 9 310 4.7 98320 86
2009-03-04 11:06 51°23.594 2°29.399 8.2 280 4.7 98300 86
2009-03-04 11:07 51°23.603 2°29.394 7.9 303 4.7 98320 87
2009-03-04 11:08 51°23.61 2°29.394 11.2 54 4.7 98310 87
2009-03-04 11:09 51°23.616 2°29.393 10.2 277 4.7 98310 88
2009-03-04 11:10 51°23.632 2°29.375 11 52 4.7 98300 87
2009-03-04 11:11 51°23.679 2°29.356 8.5 45 4.6 98310 87
2009-03-04 11:12 51°23.705 2°29.418 10.4 14 4.7 98280 86
2009-03-04 11:13 51°23.7 2°29.499 10.7 18 4.7 98290 87
2009-03-04 11:14 51°23.701 2°29.591 9.8 18 4.8 98300 87
2009-03-04 11:15 51°23.701 2°29.676 10 18 4.7 98300 87
2009-03-04 11:16 51°23.708 2°29.727 10.9 26 4.7 98290 87
2009-03-04 11:17 51°23.716 2°29.751 9.9 21 4.7 98300 87
2009-03-04 11:18 51°23.721 2°29.761 10.6 17 4.7 98290 87
2009-03-04 11:19 51°23.727 2°29.762 10.9 14 4.7 98290 88
2009-03-04 11:20 51°23.733 2°29.757 11.1 12 4.7 98310 87
2009-03-04 11:21 51°23.741 2°29.75 11.7 10 4.7 98300 88
2009-03-04 11:22 51°23.75 2°29.743 10.1 16 4.7 98300 87
2009-03-04 11:23 51°23.743 2°29.771 10.7 356 4.7 98300 88
2009-03-04 11:24 51°23.727 2°29.798 8.3 2 4.7 98290 86
2009-03-04 11:25 51°23.723 2°29.804 9.5 3 4.7 98290 88
2009-03-04 11:26 51°23.725 2°29.803 10.8 8 4.7 98310 87
2009-03-04 11:27 51°23.731 2°29.799 9.3 12 4.7 98310 88
2009-03-04 11:28 51°23.737 2°29.792 8.8 18 4.8 98300 88
2009-03-04 11:29 51°23.745 2°29.781 10.3 20 4.8 98310 88
2009-03-04 11:30 51°23.753 2°29.769 8.6 23 4.8 98300 87
2009-03-04 11:31 51°23.761 2°29.756 10.1 26 4.7 98310 86
2009-03-04 11:32 51°23.767 2°29.748 9 24 4.7 98320 87
2009-03-04 11:33 51°23.767 2°29.759 9.7 5 4.8 98320 87
2009-03-04 11:34 51°23.751 2°29.778 8.6 358 4.7 98310 87
2009-03-04 11:35 51°23.73 2°29.796 12 359 4.8 98280 86
2009-03-04 11:36 51°23.717 2°29.807 10.9 357 4.7 98310 88
2009-03-04 11:37 51°23.713 2°29.809 8.2 5 4.7 98320 88
2009-03-04 11:38 51°23.715 2°29.807 8.6 6 4.7 98320 86
2009-03-04 11:39 51°23.72 2°29.799 9.6 15 4.7 98320 88
2009-03-04 11:40 51°23.726 2°29.787 9 19 4.7 98330 87
2009-03-04 11:41 51°23.731 2°29.773 12.1 30 4.7 98330 88
2009-03-04 11:42 51°23.737 2°29.759 9.7 27 4.7 98320 87
2009-03-04 11:43 51°23.742 2°29.746 8.9 27 4.7 98330 87
2009-03-04 11:44 51°23.743 2°29.742 9.2 21 4.7 98330 87
2009-03-04 11:45 51°23.738 2°29.755 9.3 17 4.8 98320 88
2009-03-04 11:46 51°23.724 2°29.782 10.3 16 4.8 98330 87
2009-03-04 11:47 51°23.715 2°29.795 10.1 16 4.8 98310 87
2009-03-04 11:48 51°23.709 2°29.798 7.6 10 4.8 98310 88
2009-03-04 11:49 51°23.706 2°29.795 10.4 13 4.8 98310 87
2009-03-04 11:50 51°23.706 2°29.788 10.3 13 4.7 98310 88
2009-03-04 11:51 51°23.713 2°29.768 9.3 23 4.8 98320 88
2009-03-04 11:52 51°23.716 2°29.759 8.3 26 4.8 98310 88
2009-03-04 11:53 51°23.718 2°29.748 9 29 4.8 98330 88
2009-03-04 11:54 51°23.72 2°29.738 8.9 22 4.8 98320 88
2009-03-04 11:55 51°23.72 2°29.727 9.3 20 4.8 98320 87
2009-03-04 11:56 51°23.722 2°29.713 9 20 4.9 98310 87
2009-03-04 11:57 51°23.724 2°29.697 8.6 25 4.9 98310 88
2009-03-04 11:58 51°23.726 2°29.681 9.6 21 4.9 98320 87
2009-03-04 11:59 51°23.727 2°29.673 9.4 26 4.9 98300 87
2009-03-04 12:00 51°23.736 2°29.709 6.8 44 4.9 98300 87
2009-03-04 12:01 51°23.792 2°29.801 5.6 34 4.8 98310 87
2009-03-04 12:02 51°23.892 2°29.977 4.5 32 4.8 98310 87
2009-03-04 12:03 51°24.005 2°30.182 4 32 4.8 98310 87
2009-03-04 12:04 51°24.118 2°30.387 4.3 33 4.9 98320 87
2009-03-04 12:05 51°24.233 2°30.593 4.9 28 4.9 98310 87
2009-03-04 12:06 51°24.342 2°30.796 6.2 27 4.9 98310 87
2009-03-04 12:07 51°24.455 2°31 4.3 25 4.8 98300 87
2009-03-04 12:08 51°24.565 2°31.204 4.9 35 4.9 98300 86
2009-03-04 12:09 51°24.683 2°31.416 4.9 30 4.9 98300 87
2009-03-04 12:10 51°24.795 2°31.618 6.1 27 4.8 98300 87
2009-03-04 12:11 51°24.907 2°31.821 5.5 28 4.8 98300 86
2009-03-04 12:12 51°25.02 2°32.024 4.2 20 4.8 98290 86
2009-03-04 12:13 51°25.142 2°32.247 4.5 21 4.8 98290 86
2009-03-04 12:14 51°25.266 2°32.472 5.2 26 4.8 98300 87
2009-03-04 12:15 51°25.39 2°32.693 5.4 27 4.9 98300 87
2009-03-04 12:16 51°25.515 2°32.919 4.9 21 4.9 98300 86
2009-03-04 12:17 51°25.631 2°33.129 5.1 19 4.9 98290 86
2009-03-04 12:18 51°25.755 2°33.359 5 29 4.8 98300 87
2009-03-04 12:19 51°25.877 2°33.587 5.6 19 4.8 98290 87
2009-03-04 12:20 51°25.995 2°33.799 5.4 24 4.8 98300 86
2009-03-04 12:21 51°26.122 2°34.025 6.1 29 4.8 98300 86
2009-03-04 12:22 51°26.24 2°34.243 5.6 23 4.8 98290 86
2009-03-04 12:23 51°26.364 2°34.468 4.4 20 4.8 98290 86
2009-03-04 12:24 51°26.482 2°34.689 4.5 24 4.8 98280 85
2009-03-04 12:25 51°26.605 2°34.917 5.7 22 4.8 98270 86
2009-03-04 12:26 51°26.72 2°35.14 5.8 32 4.9 98280 86
2009-03-04 12:27 51°26.843 2°35.36 3.1 19 4.9 98280 86
2009-03-04 12:28 51°26.964 2°35.593 3.9 24 4.9 98290 86
2009-03-04 12:29 51°27.072 2°35.834 4.9 17 4.8 98290 87
2009-03-04 12:30 51°27.18 2°36.069 6.2 29 4.8 98290 86
2009-03-04 12:31 51°27.288 2°36.313 6.1 22 4.8 98290 86
2009-03-04 12:32 51°27.398 2°36.557 5 26 4.8 98290 85
2009-03-04 12:33 51°27.513 2°36.782 4.3 28 4.8 98290 86
2009-03-04 12:34 51°27.643 2°36.996 4 27 4.8 98290 87
2009-03-04 12:35 51°27.757 2°37.236 5.5 25 4.8 98280 86
2009-03-04 12:36 51°27.858 2°37.487 5 23 4.8 98280 86
2009-03-04 12:37 51°27.952 2°37.74 6 24 4.8 98280 86
2009-03-04 12:38 51°28.046 2°37.997 6.6 18 4.8 98280 87
2009-03-04 12:39 51°28.139 2°38.262 6.1 19 4.7 98290 86
2009-03-04 12:40 51°28.223 2°38.517 8.4 19 4.7 98280 86
2009-03-04 12:41 51°28.298 2°38.796 5.7 20 4.7 98280 86
2009-03-04 12:42 51°28.37 2°39.081 6.6 18 4.8 98270 86
2009-03-04 12:43 51°28.444 2°39.359 7 11 4.8 98280 86
2009-03-04 12:44 51°28.516 2°39.633 5.9 18 4.8 98280 86
2009-03-04 12:45 51°28.593 2°39.907 6.1 13 4.7 98270 86
2009-03-04 12:46 51°28.668 2°40.191 6.9 18 4.7 98270 86
2009-03-04 12:47 51°28.739 2°40.461 7.5 17 4.7 98270 86
2009-03-04 12:48 51°28.806 2°40.751 6.6 17 4.7 98270 86
2009-03-04 12:49 51°28.876 2°41.034 7 18 4.7 98270 86
2009-03-04 12:50 51°28.948 2°41.321 5.7 11 4.8 98270 86
2009-03-04 12:51 51°29.017 2°41.605 6.8 18 4.7 98270 86
2009-03-04 12:52 51°29.085 2°41.883 8.4 20 4.7 98260 85
2009-03-04 12:53 51°29.156 2°42.171 8.2 14 4.7 98270 87
2009-03-04 12:54 51°29.221 2°42.441 6.9 19 4.8 98270 87
2009-03-04 12:55 51°29.295 2°42.726 6.4 17 4.7 98280 86
2009-03-04 12:56 51°29.363 2°42.999 6.7 15 4.7 98270 87
2009-03-04 12:57 51°29.428 2°43.283 5.5 22 4.7 98270 87
2009-03-04 12:58 51°29.494 2°43.559 5.8 17 4.8 98270 87
2009-03-04 12:59 51°29.562 2°43.847 7.8 18 4.7 98270 87
2009-03-04 13:00 51°29.629 2°44.119 8.1 14 4.7 98270 87
2009-03-04 13:01 51°29.696 2°44.401 6.4 11 4.7 98260 86
2009-03-04 13:02 51°29.765 2°44.683 5.3 13 4.7 98270 86
2009-03-04 13:03 51°29.834 2°44.957 7 19 4.7 98270 86
2009-03-04 13:04 51°29.899 2°45.235 7.9 15 4.7 98270 87
2009-03-04 13:05 51°29.966 2°45.517 8.5 17 4.7 98270 86
2009-03-04 13:06 51°30.035 2°45.804 7.4 16 4.7 98270 86
2009-03-04 13:07 51°30.104 2°46.083 5.8 13 4.7 98270 87
2009-03-04 13:08 51°30.172 2°46.359 7.9 17 4.6 98270 87
2009-03-04 13:09 51°30.238 2°46.644 6.3 13 4.6 98270 87
2009-03-04 13:10 51°30.304 2°46.925 7.5 12 4.6 98280 87
2009-03-04 13:11 51°30.37 2°47.2 6 16 4.6 98280 87
2009-03-04 13:12 51°30.435 2°47.481 7.9 15 4.6 98280 87
2009-03-04 13:13 51°30.492 2°47.775 6.8 16 4.6 98280 87
2009-03-04 13:14 51°30.55 2°48.063 8.1 16 4.6 98280 87
2009-03-04 13:15 51°30.607 2°48.346 8 18 4.6 98270 86
2009-03-04 13:16 51°30.662 2°48.641 7.3 14 4.6 98270 86
2009-03-04 13:17 51°30.714 2°48.926 7.4 17 4.6 98280 86
2009-03-04 13:18 51°30.77 2°49.221 8.1 13 4.6 98280 86
2009-03-04 13:19 51°30.825 2°49.504 8.5 12 4.6 98280 87
2009-03-04 13:20 51°30.883 2°49.796 8.5 12 4.6 98280 86
2009-03-04 13:21 51°30.936 2°50.076 8.8 12 4.6 98280 86
2009-03-04 13:22 51°30.993 2°50.375 8.7 15 4.6 98280 86
2009-03-04 13:23 51°31.05 2°50.66 8 15 4.6 98280 86
2009-03-04 13:24 51°31.109 2°50.952 7.7 17 4.6 98280 86
2009-03-04 13:25 51°31.162 2°51.24 8.3 9 4.6 98280 87
2009-03-04 13:26 51°31.201 2°51.537 8.3 11 4.6 98280 86
2009-03-04 13:27 51°31.226 2°51.839 9.8 10 4.5 98270 86
2009-03-04 13:28 51°31.265 2°52.13 6.8 12 4.5 98280 87
2009-03-04 13:29 51°31.305 2°52.395 8 14 4.5 98290 87
2009-03-04 13:30 51°31.324 2°52.559 8.6 22 4.5 98300 87
2009-03-04 13:31 51°31.315 2°52.629 8.1 22 4.5 98300 87
2009-03-04 13:32 51°31.308 2°52.635 8.6 20 4.5 98300 87
2009-03-04 13:33 51°31.307 2°52.615 6.8 29 4.5 98300 87
2009-03-04 13:34 51°31.304 2°52.598 7.8 27 4.5 98300 87
2009-03-04 13:35 51°31.301 2°52.595 8.8 28 4.5 98290 86
2009-03-04 13:36 51°31.297 2°52.6 7.5 22 4.5 98290 87
2009-03-04 13:37 51°31.291 2°52.608 8.2 21 4.5 98290 86
2009-03-04 13:38 51°31.285 2°52.618 7.3 18 4.6 98300 86
2009-03-04 13:39 51°31.279 2°52.629 7.6 21 4.6 98300 86
2009-03-04 13:40 51°31.277 2°52.638 8.9 27 4.6 98300 87
2009-03-04 13:41 51°31.277 2°52.645 8 29 4.6 98310 87
2009-03-04 13:42 51°31.278 2°52.65 7.8 32 4.6 98310 87
2009-03-04 13:43 51°31.278 2°52.656 7.9 36 4.6 98300 87
2009-03-04 13:44 51°31.279 2°52.659 7.6 33 4.6 98310 87
2009-03-04 13:45 51°31.279 2°52.662 8.7 36 4.6 98300 87
2009-03-04 13:46 51°31.28 2°52.664 8.4 36 4.6 98300 88
2009-03-04 13:47 51°31.281 2°52.664 8 36 4.6 98300 87
2009-03-04 13:48 51°31.28 2°52.661 8.5 36 4.6 98300 87
2009-03-04 13:49 51°31.279 2°52.66 6.8 28 4.6 98300 87
2009-03-04 13:50 51°31.279 2°52.659 7.2 36 4.6 98290 87
2009-03-04 13:51 51°31.278 2°52.657 6.5 32 4.6 98290 87
2009-03-04 13:52 51°31.278 2°52.656 7.5 36 4.6 98290 87
2009-03-04 13:53 51°31.278 2°52.658 7.5 36 4.6 98300 88
2009-03-04 13:54 51°31.279 2°52.659 6.9 35 4.6 98280 87
2009-03-04 13:55 51°31.279 2°52.661 7.4 35 4.7 98280 87
2009-03-04 13:56 51°31.279 2°52.661 7.4 36 4.6 98300 87
2009-03-04 13:57 51°31.279 2°52.66 6.7 38 4.6 98280 88
2009-03-04 13:58 51°31.278 2°52.66 7 36 4.6 98280 88
2009-03-04 13:59 51°31.279 2°52.664 6.9 39 4.6 98280 87
2009-03-04 14:00 51°31.281 2°52.667 6.5 41 4.6 98280 86
2009-03-04 14:01 51°31.281 2°52.668 5.2 41 4.6 98280 88
2009-03-04 14:02 51°31.281 2°52.67 5.1 43 4.7 98280 87
2009-03-04 14:03 51°31.283 2°52.672 5.5 41 4.7 98280 87
2009-03-04 14:04 51°31.284 2°52.673 5.6 45 4.7 98280 88
2009-03-04 14:05 51°31.284 2°52.672 4.9 50 4.7 98280 87
2009-03-04 14:06 51°31.287 2°52.677 6.1 54 4.7 98280 88
2009-03-04 14:07 51°31.291 2°52.68 6.5 53 4.6 98290 88
2009-03-04 14:08 51°31.293 2°52.68 7 52 4.7 98290 87
2009-03-04 14:09 51°31.293 2°52.679 6.2 56 4.7 98290 87
2009-03-04 14:10 51°31.293 2°52.677 7 52 4.7 98290 87
2009-03-04 14:11 51°31.293 2°52.678 6.3 53 4.7 98290 87
2009-03-04 14:12 51°31.291 2°52.677 5.7 41 4.7 98290 86
2009-03-04 14:13 51°31.291 2°52.67 6.9 50 4.7 98290 87
2009-03-04 14:14 51°31.292 2°52.662 5.2 52 4.7 98280 87
2009-03-04 14:15 51°31.297 2°52.657 4.9 56 4.9 98280 87
2009-03-04 14:16 51°31.303 2°52.652 5.2 53 4.9 98280 88
2009-03-04 14:17 51°31.31 2°52.648 4.7 56 4.8 98280 86
2009-03-04 14:18 51°31.317 2°52.642 5.5 56 4.8 98280 87
2009-03-04 14:19 51°31.346 2°52.662 5.3 40 4.9 98280 87
2009-03-04 14:20 51°31.385 2°52.821 6.5 11 4.9 98280 87
2009-03-04 14:21 51°31.429 2°53.089 5.3 -999 4.8 98270 87
2009-03-04 14:22 51°31.484 2°53.389 4.9 3 4.8 98270 87
2009-03-04 14:23 51°31.563 2°53.676 4.1 5 4.8 98270 87
2009-03-04 14:24 51°31.655 2°53.946 3.7 2 4.7 98270 86
2009-03-04 14:25 51°31.777 2°54.191 3.5 7 4.7 98280 87
2009-03-04 14:26 51°31.903 2°54.431 3.2 4 4.7 98280 87
2009-03-04 14:27 51°31.997 2°54.626 3.7 16 4.7 98280 87
2009-03-04 14:28 51°32.011 2°54.74 5.2 18 4.8 98280 87
2009-03-04 14:29 51°32.001 2°54.8 5.9 16 4.8 98270 88
2009-03-04 14:30 51°31.989 2°54.84 5.9 13 4.8 98280 87
2009-03-04 14:31 51°31.976 2°54.868 6 9 4.8 98280 88
2009-03-04 14:32 51°31.964 2°54.888 6.7 9 4.8 98280 87
2009-03-04 14:33 51°31.954 2°54.903 6.5 10 4.8 98280 87
2009-03-04 14:34 51°31.946 2°54.917 5.2 6 4.8 98280 86
2009-03-04 14:35 51°31.939 2°54.928 5.8 8 4.8 98280 87
2009-03-04 14:36 51°31.932 2°54.94 5.3 9 4.8 98280 88
2009-03-04 14:37 51°31.926 2°54.952 6.3 9 4.8 98280 87
2009-03-04 14:38 51°31.921 2°54.963 6.5 8 4.8 98280 88
2009-03-04 14:39 51°31.915 2°54.975 5.2 10 4.8 98290 87
2009-03-04 14:40 51°31.91 2°54.988 5.1 6 4.8 98290 87
2009-03-04 14:41 51°31.906 2°55.001 5.7 16 4.8 98290 87
2009-03-04 14:42 51°31.902 2°55.014 6.3 13 4.8 98290 87
2009-03-04 14:43 51°31.897 2°55.026 5.4 17 4.8 98290 86
2009-03-04 14:44 51°31.894 2°55.038 5.5 16 4.8 98290 87
2009-03-04 14:45 51°31.89 2°55.053 5.6 19 4.9 98290 87
2009-03-04 14:46 51°31.887 2°55.067 5.6 16 4.9 98290 87
2009-03-04 14:47 51°31.884 2°55.079 5.3 16 4.9 98290 87
2009-03-04 14:48 51°31.881 2°55.093 5.4 17 4.9 98300 87
2009-03-04 14:49 51°31.879 2°55.107 5.4 16 4.9 98300 86
2009-03-04 14:50 51°31.876 2°55.122 5.8 15 4.9 98280 87
2009-03-04 14:51 51°31.873 2°55.139 5.2 12 4.9 98280 86
2009-03-04 14:52 51°31.866 2°55.166 4.9 12 4.9 98280 87
2009-03-04 14:53 51°31.846 2°55.213 4.8 8 4.9 98280 86
2009-03-04 14:54 51°31.819 2°55.267 5.4 4 4.9 98270 86
2009-03-04 14:55 51°31.782 2°55.329 5.9 -999 4.8 98260 87
2009-03-04 14:56 51°31.74 2°55.392 5.7 357 4.8 98260 86
2009-03-04 14:57 51°31.7 2°55.45 6 1 4.8 98260 87
2009-03-04 14:58 51°31.665 2°55.513 4.8 359 4.8 98260 87
2009-03-04 14:59 51°31.63 2°55.573 6 1 4.7 98260 87
2009-03-04 15:00 51°31.597 2°55.631 6 358 4.7 98260 87
2009-03-04 15:01 51°31.559 2°55.699 5.8 359 4.7 98270 87
2009-03-04 15:02 51°31.522 2°55.766 5.6 358 4.7 98280 87
2009-03-04 15:03 51°31.483 2°55.839 6.8 357 4.7 98280 87
2009-03-04 15:04 51°31.445 2°55.911 5.9 358 4.7 98290 87
2009-03-04 15:05 51°31.406 2°55.983 5.9 357 4.7 98290 87
2009-03-04 15:06 51°31.368 2°56.055 6.1 359 4.7 98300 86
2009-03-04 15:07 51°31.333 2°56.127 6.7 358 4.7 98310 87
2009-03-04 15:08 51°31.294 2°56.202 5.5 357 4.7 98310 88
2009-03-04 15:09 51°31.257 2°56.271 6.3 359 4.7 98310 88
2009-03-04 15:10 51°31.216 2°56.341 6.1 353 4.7 98310 88
2009-03-04 15:11 51°31.174 2°56.387 6.7 345 4.7 98300 87
2009-03-04 15:12 51°31.127 2°56.409 5.8 335 4.7 98300 88
2009-03-04 15:13 51°31.089 2°56.397 6.8 304 4.7 98310 87
2009-03-04 15:14 51°31.064 2°56.349 6.2 305 4.8 98300 88
2009-03-04 15:15 51°31.054 2°56.281 5 304 4.8 98300 87
2009-03-04 15:16 51°31.052 2°56.21 6.5 304 4.8 98300 87
2009-03-04 15:17 51°31.054 2°56.132 5.4 308 4.9 98300 88
2009-03-04 15:18 51°31.06 2°56.058 5.6 307 4.9 98290 87
2009-03-04 15:19 51°31.062 2°55.982 6.4 303 4.8 98290 87
2009-03-04 15:20 51°31.078 2°55.916 5.8 303 4.9 98290 87
2009-03-04 15:21 51°31.123 2°55.885 3.6 305 4.9 98300 87
2009-03-04 15:22 51°31.178 2°55.881 3.3 49 4.9 98300 87
2009-03-04 15:23 51°31.23 2°55.901 2.4 54 4.9 98300 87
2009-03-04 15:24 51°31.271 2°55.936 3.2 57 4.9 98300 87
2009-03-04 15:25 51°31.299 2°55.971 3.3 50 5 98300 88
2009-03-04 15:26 51°31.325 2°56.005 2.9 54 5.1 98310 87
2009-03-04 15:27 51°31.345 2°56.04 4.1 54 5.2 98310 87
2009-03-04 15:28 51°31.362 2°56.09 4.1 36 5.2 98310 87
2009-03-04 15:29 51°31.37 2°56.138 4.3 35 5.1 98310 87
2009-03-04 15:30 51°31.375 2°56.184 4.1 34 5 98300 86
2009-03-04 15:31 51°31.379 2°56.226 3.9 32 5 98310 87
2009-03-04 15:32 51°31.382 2°56.263 4.2 29 4.9 98310 87
2009-03-04 15:33 51°31.385 2°56.299 4.2 30 4.9 98310 87
2009-03-04 15:34 51°31.386 2°56.331 4.6 26 4.9 98310 87
2009-03-04 15:35 51°31.389 2°56.363 4.6 26 4.8 98310 88
2009-03-04 15:36 51°31.39 2°56.397 4.3 21 4.8 98300 88
2009-03-04 15:37 51°31.386 2°56.439 4.6 10 4.8 98300 87
2009-03-04 15:38 51°31.376 2°56.484 4.9 360 4.8 98300 87
2009-03-04 15:39 51°31.344 2°56.515 6.1 336 4.8 98310 87
2009-03-04 15:40 51°31.227 2°56.5 9.5 338 4.8 98300 87
2009-03-04 15:41 51°31.053 2°56.492 9.2 338 4.8 98300 87
2009-03-04 15:42 51°30.864 2°56.481 8.8 336 4.9 98300 88
2009-03-04 15:43 51°30.684 2°56.466 9.5 340 4.9 98300 87
2009-03-04 15:44 51°30.498 2°56.49 8.9 337 4.9 98290 88
2009-03-04 15:45 51°30.308 2°56.507 9.7 337 4.9 98300 88
2009-03-04 15:46 51°30.122 2°56.49 8.2 333 4.9 98290 87
2009-03-04 15:47 51°29.937 2°56.453 9.8 335 4.9 98290 88
2009-03-04 15:48 51°29.75 2°56.426 7.8 334 4.9 98300 87
2009-03-04 15:49 51°29.564 2°56.395 9.5 333 4.9 98300 88
2009-03-04 15:50 51°29.38 2°56.366 9.2 334 4.9 98290 87
2009-03-04 15:51 51°29.187 2°56.331 9.4 334 4.9 98290 87
2009-03-04 15:52 51°29.006 2°56.3 7.7 334 4.9 98300 87
2009-03-04 15:53 51°28.818 2°56.26 10 335 4.9 98300 87
2009-03-04 15:54 51°28.629 2°56.22 8 333 4.8 98310 88
2009-03-04 15:55 51°28.449 2°56.188 7.5 334 4.9 98300 87
2009-03-04 15:56 51°28.265 2°56.154 7.2 334 4.9 98310 88
2009-03-04 15:57 51°28.087 2°56.122 7.6 335 4.9 98310 87
2009-03-04 15:58 51°27.901 2°56.094 9.2 334 4.9 98310 87
2009-03-04 15:59 51°27.723 2°56.065 7.8 335 4.9 98310 87
2009-03-04 16:00 51°27.537 2°56.033 7.7 334 4.9 98310 87
2009-03-04 16:01 51°27.357 2°55.995 7.7 335 4.9 98310 87
2009-03-04 16:02 51°27.177 2°55.958 8.8 335 4.9 98310 87
2009-03-04 16:03 51°26.993 2°55.926 9 333 4.9 98310 88
2009-03-04 16:04 51°26.812 2°55.888 7.2 335 4.9 98310 87
2009-03-04 16:05 51°26.624 2°55.855 7.5 336 4.9 98300 86
2009-03-04 16:06 51°26.448 2°55.824 8.7 335 5 98310 87
2009-03-04 16:07 51°26.262 2°55.791 8.4 335 5 98310 87
2009-03-04 16:08 51°26.078 2°55.755 8.3 336 5 98310 88
2009-03-04 16:09 51°25.893 2°55.718 7 336 5 98310 88
2009-03-04 16:10 51°25.708 2°55.694 8.7 336 5 98300 87
2009-03-04 16:11 51°25.522 2°55.667 9 336 5 98300 87
2009-03-04 16:12 51°25.337 2°55.629 7.4 337 5 98300 87
2009-03-04 16:13 51°25.155 2°55.601 8.8 339 5 98310 87
2009-03-04 16:14 51°24.97 2°55.568 7.2 341 5 98310 87
2009-03-04 16:15 51°24.794 2°55.543 8.2 341 5 98310 88
2009-03-04 16:16 51°24.617 2°55.496 8.4 341 5 98320 88
2009-03-04 16:17 51°24.443 2°55.439 7.5 339 5 98310 87
2009-03-04 16:18 51°24.267 2°55.394 7.8 341 5 98310 87
2009-03-04 16:19 51°24.091 2°55.346 7 339 4.9 98310 87
2009-03-04 16:20 51°23.916 2°55.291 8.3 341 5 98310 87
2009-03-04 16:21 51°23.739 2°55.245 7.5 339 5 98310 87
2009-03-04 16:22 51°23.565 2°55.199 7.9 341 5 98310 88
2009-03-04 16:23 51°23.387 2°55.15 8.7 343 5 98300 87
2009-03-04 16:24 51°23.214 2°55.114 9.8 347 4.9 98300 87
2009-03-04 16:25 51°23.035 2°55.079 12 348 4.7 98300 87
2009-03-04 16:26 51°22.857 2°55.045 11.3 349 4.4 98290 87
2009-03-04 16:27 51°22.681 2°55.007 10 346 4.4 98300 85
2009-03-04 16:28 51°22.501 2°54.962 11.3 347 4.1 98310 84
2009-03-04 16:29 51°22.324 2°54.92 11.9 342 4 98300 85
2009-03-04 16:30 51°22.143 2°54.876 10.6 342 3.8 98310 84
2009-03-04 16:31 51°21.968 2°54.841 10 343 3.7 98320 84
2009-03-04 16:32 51°21.791 2°54.79 10.2 344 3.6 98310 85
2009-03-04 16:33 51°21.616 2°54.748 9.6 344 3.5 98310 85
2009-03-04 16:34 51°21.441 2°54.704 8.4 346 3.5 98310 86
2009-03-04 16:35 51°21.264 2°54.664 9.3 344 3.5 98320 86
2009-03-04 16:36 51°21.085 2°54.615 8.5 344 3.5 98320 87
2009-03-04 16:37 51°20.911 2°54.569 8.3 341 3.6 98320 88
2009-03-04 16:38 51°20.736 2°54.524 6.9 341 3.6 98320 86
2009-03-04 16:39 51°20.555 2°54.48 7.4 339 3.6 98320 87
2009-03-04 16:40 51°20.378 2°54.432 5.9 338 3.6 98320 86
2009-03-04 16:41 51°20.2 2°54.379 6.1 335 3.6 98320 87
2009-03-04 16:42 51°20.021 2°54.329 6.5 337 3.6 98320 87
2009-03-04 16:43 51°19.843 2°54.282 5.3 337 3.6 98320 87
2009-03-04 16:44 51°19.662 2°54.234 7.9 336 3.7 98320 87
2009-03-04 16:45 51°19.482 2°54.181 6.9 336 3.8 98320 87
2009-03-04 16:46 51°19.305 2°54.135 5.5 339 3.7 98320 87
2009-03-04 16:47 51°19.131 2°54.075 4.5 333 3.7 98310 87
2009-03-04 16:48 51°18.949 2°54.016 5.6 338 3.6 98310 87
2009-03-04 16:49 51°18.771 2°53.957 6.4 331 3.6 98310 88
2009-03-04 16:50 51°18.594 2°53.891 5.5 339 3.7 98310 88
2009-03-04 16:51 51°18.418 2°53.829 6.4 329 3.7 98310 87
2009-03-04 16:52 51°18.241 2°53.769 6.4 286 3.7 98310 86
2009-03-04 16:53 51°18.064 2°53.706 6.1 336 3.7 98310 87
2009-03-04 16:54 51°17.887 2°53.637 6.1 280 3.8 98310 87
2009-03-04 16:55 51°17.71 2°53.565 6 334 3.8 98320 87
2009-03-04 16:56 51°17.535 2°53.485 6.2 281 3.8 98320 87
2009-03-04 16:57 51°17.36 2°53.408 6.2 281 3.8 98330 87
2009-03-04 16:58 51°17.183 2°53.34 6.7 281 3.8 98330 86
2009-03-04 16:59 51°17 2°53.313 6.7 281 3.8 98330 87
2009-03-04 17:00 51°16.815 2°53.322 6.6 330 3.9 98330 86
2009-03-04 17:01 51°16.631 2°53.368 7.8 282 3.9 98320 86
2009-03-04 17:02 51°16.447 2°53.428 9.1 328 3.9 98320 87
2009-03-04 17:03 51°16.264 2°53.49 7.8 286 4 98320 86
2009-03-04 17:04 51°16.08 2°53.556 8.3 330 4 98320 85
2009-03-04 17:05 51°15.896 2°53.619 9.2 285 4.1 98320 85
2009-03-04 17:06 51°15.723 2°53.738 8.7 281 4.1 98330 86
2009-03-04 17:07 51°15.572 2°53.938 7.8 285 4.2 98320 84
2009-03-04 17:08 51°15.445 2°54.12 7.3 337 4.2 98320 84
2009-03-04 17:09 51°15.323 2°54.288 6.5 338 4.2 98320 84
2009-03-04 17:10 51°15.221 2°54.429 5.9 286 4.3 98320 85
2009-03-04 17:11 51°15.131 2°54.54 5 335 4.3 98320 84
2009-03-04 17:12 51°15.044 2°54.647 5.6 281 4.3 98310 84
2009-03-04 17:13 51°14.927 2°54.769 7.1 331 4.4 98310 84
2009-03-04 17:14 51°14.75 2°54.868 7.4 331 4.4 98310 83
2009-03-04 17:15 51°14.562 2°54.922 8.7 284 4.5 98310 83
2009-03-04 17:16 51°14.39 2°55.074 7.2 335 4.5 98310 84
2009-03-04 17:17 51°14.246 2°55.278 6.4 334 4.6 98310 84
2009-03-04 17:18 51°14.112 2°55.419 4.9 338 4.5 98310 84
2009-03-04 17:19 51°13.995 2°55.507 5.6 335 4.5 98310 84
2009-03-04 17:20 51°13.86 2°55.602 5.1 334 4.5 98320 84
2009-03-04 17:21 51°13.744 2°55.715 4.1 340 4.4 98310 84
2009-03-04 17:22 51°13.688 2°55.832 2.7 343 4.3 98320 85
2009-03-04 17:23 51°13.668 2°55.928 1.2 350 4.3 98320 84
2009-03-04 17:24 51°13.665 2°55.954 0.6 5 4.2 98320 84